Flagstaff Pulliam Airport
KFLG : now visible

Airfield :











YOU CAN JOIN US ON...

 
LOGIN :

Register | Disclaimer

   EN    FR    IT 

 









Legend :    VFR   Marginal VFR   IFR   Intensive IFR   Very Intensive IFR
Visi :
Ceiling :
>= 8 km
>= 3000ft
5 to 8 km
1000 to 3000 ft
1500m to 5 km
500 to 1000 ft
800 to 1500m
200 to 500 ft
< 800m
< 200 ft
Symbols :   Thunderstorms  Fog  Heavy snow  Heavy precipitations  Wind > 20 kt






- Airport Elevation : 7014 ft
- IATA code : FLG


KFLG - Flagstaff Pulliam

CURRENT METAR :
  • 060357Z AUTO 26005KT 10SM CLR 23/M06 A3025 RMK AO2 SLP115 T02281056

EXPIRED METARs :
  • 060257Z 25006KT 10SM CLR 24/M05 A3024 RMK AO2 SLP107 T02441050 53002
  • 060157Z 24011KT 10SM CLR 27/M04 A3023 RMK AO2 SLP116 T02671039

TAF KFLG
Valid from the 06 at 01:00 until the 07 at 00:00 UTC


060114Z 0601/0624 24010KT P6SM FEW120
FM060300 VRB03KT P6SM SKC
FM061700 23015G25KT P6SM SKC
KZAB FIR / North America



MET'MAP, your aeronautical weather chart ! - Copyright ORBIFLY December 2007 - Disclaimer

ORBIFLY MET'MAP TEAM :

Programming & Development : Alexandra Zaïnal
Concept & original design : Baudouin d'Aumeries
Assistance for programming : Marc-Olivier Méhu
Technical & hardware support : Manuel Goepfert

Contact : metmap@orbifly.com




SOURCES & CREDITS :

   NOAA       Earth
Advisory